North Adams, MA

5:55 AM EDT on September 23, 2017 (GMT -0400)
Harriman And West

Weather History for KAQW - October, 2011

Change the Weather History Date:

Thursday, October 13, 2011

  Actual Average Record
Temperature  
Mean Temperature 58 °F -  
Max Temperature 64 °F 58 °F 75 °F (2001)
Min Temperature 53 °F 37 °F 23 °F (2012)
Degree Days  
Heating Degree Days 6    
Growing Degree Days 8 (Base 50)    
Moisture  
Dew Point 53 °F    
Average Humidity 83    
Maximum Humidity 90    
Minimum Humidity 73    
Precipitation  
Precipitation 0.13 in - - ()
Sea Level Pressure  
Sea Level Pressure 29.87 in    
Wind  
Wind Speed 13 mph (ESE)    
Max Wind Speed 18 mph    
Max Gust Speed 25 mph    
Visibility 9 miles    
Events Rain    
Averages and records for this station are not official NWS values.
T = Trace of Precipitation, MM = Missing Value Source: NWS Daily Summary

Daily Weather History Graph

Daily Weather History Graph

Search for Another Location

Airport or City:

Trip Planner

Search our weather history database for the weather conditions in past years. The results will help you decide how hot, cold, wet, or windy it might be!

Date:

Astronomy

Oct. 13, 2011 Rise Set
Actual Time 7:03 AM EDT 6:14 PM EDT
Civil Twilight 6:34 AM EDT 6:42 PM EDT
Nautical Twilight 6:02 AM EDT 7:15 PM EDT
Astronomical Twilight 5:29 AM EDT 7:47 PM EDT
Moon 6:44 PM EDT (10/13) 8:36 AM EDT (10/13)
Length of Visible Light 12h 07m
Length of Day
11h 10m
Full, 98% of the Moon is Illuminated
Oct 13
Full
Oct 19
Last Quarter
Oct 26
New
Nov 2
First Quarter
Nov 10
Full

Hourly Weather History & Observations

Time (EDT) Temp. Dew Point Humidity Pressure Visibility Wind Dir Wind Speed Gust Speed Precip Events Conditions
12:50 AM 53.6 °F 48.2 °F 82% 30.02 in 9.0 mi ESE 13.8 mph - N/A   Overcast
12:52 AM 54.0 °F 48.9 °F 83% 30.02 in 10.0 mi ESE 12.7 mph - N/A   Overcast
1:33 AM 53.6 °F 50.0 °F 88% 29.99 in 10.0 mi ESE 17.3 mph 23.0 mph N/A   Overcast
1:52 AM 55.0 °F 50.0 °F 83% 29.99 in 10.0 mi ESE 16.1 mph 21.9 mph N/A   Overcast
2:52 AM 54.0 °F 51.1 °F 90% 29.96 in 8.0 mi ESE 11.5 mph 23.0 mph 0.00 in Rain Light Rain
3:52 AM 54.0 °F 51.1 °F 90% 29.94 in 6.0 mi ESE 13.8 mph - 0.04 in Rain Light Rain
4:52 AM 55.0 °F 52.0 °F 89% 29.94 in 9.0 mi ESE 12.7 mph 25.3 mph 0.04 in Rain Light Rain
5:52 AM 55.0 °F 52.0 °F 89% 29.92 in 7.0 mi ESE 16.1 mph 21.9 mph 0.02 in Rain Light Rain
6:52 AM 55.0 °F 52.0 °F 89% 29.91 in 8.0 mi ESE 13.8 mph - 0.02 in Rain Light Rain
7:28 AM 55.4 °F 51.8 °F 88% 29.90 in 10.0 mi ESE 11.5 mph 19.6 mph 0.00 in   Overcast
7:52 AM 55.9 °F 52.0 °F 87% 29.91 in 5.0 mi SE 12.7 mph 19.6 mph 0.00 in Rain Light Rain
8:52 AM 55.9 °F 53.1 °F 90% 29.91 in 5.0 mi ESE 12.7 mph - 0.01 in Rain Light Rain
9:12 AM 57.2 °F 53.6 °F 88% 29.90 in 10.0 mi ESE 18.4 mph - 0.00 in   Overcast
9:52 AM 57.0 °F 53.1 °F 87% 29.90 in 4.0 mi ESE 16.1 mph - 0.00 in Rain Light Rain
10:07 AM 57.2 °F 53.6 °F 88% 29.89 in 9.0 mi ESE 12.7 mph - 0.00 in   Overcast
10:52 AM 59.0 °F 54.0 °F 83% 29.88 in 10.0 mi ESE 11.5 mph 20.7 mph 0.00 in   Overcast
11:52 AM 61.0 °F 54.0 °F 78% 29.86 in 10.0 mi East 15.0 mph 19.6 mph N/A   Overcast
12:52 PM 62.1 °F 54.0 °F 75% 29.85 in 10.0 mi ESE 10.4 mph 16.1 mph N/A   Overcast
1:52 PM 62.1 °F 55.0 °F 78% 29.82 in 10.0 mi Variable 4.6 mph - N/A   Overcast
2:52 PM 64.0 °F 55.0 °F 73% 29.79 in 10.0 mi ESE 8.1 mph - N/A   Overcast
4:52 PM 62.1 °F 55.0 °F 78% 29.79 in 10.0 mi ESE 8.1 mph - N/A   Overcast
5:52 PM 61.0 °F 55.0 °F 81% 29.77 in 10.0 mi East 11.5 mph 16.1 mph N/A   Overcast
6:52 PM 60.1 °F 55.0 °F 83% 29.79 in 10.0 mi East 6.9 mph - N/A   Overcast
7:52 PM 60.1 °F 55.0 °F 83% 29.79 in 10.0 mi ESE 12.7 mph - N/A   Overcast
8:52 PM 60.1 °F 54.0 °F 80% 29.80 in 10.0 mi ESE 12.7 mph - N/A   Overcast
9:52 PM 60.1 °F 54.0 °F 80% 29.79 in 10.0 mi East 9.2 mph - N/A   Overcast
10:52 PM 60.1 °F 54.0 °F 80% 29.76 in 10.0 mi East 9.2 mph - N/A   Overcast
10:59 PM 60.8 °F 53.6 °F 77% 29.76 in 10.0 mi East 10.4 mph 17.3 mph N/A   Mostly Cloudy
11:52 PM 60.1 °F 54.0 °F 80% 29.75 in 10.0 mi East 6.9 mph - N/A   Overcast